{"data":{"norad_id":53797,"intl_designator":"2022-111AA","name":"STARLINK-4723","alt_names":[],"object_type":"PAYLOAD","status":"ACTIVE","operator":null,"country":"US","launch_date":"2022-09-11","launch_site_code":"AFETR","launch_vehicle":null,"mission":null,"orbit_class":"UNKNOWN","rcs_meters":null,"size_class":null,"mass_kg":null,"dimensions":null,"purposes":["comms"],"wikipedia_slug":null,"has_3d_model":false,"image_url":null,"decayed_at":null,"tle_current":{"epoch":"2026-09-20T06:32:34.616832Z","epoch_age_seconds":103479,"freshness":"FRESH","line1":"1 53797U 22111AA  26263.27262288  .00000291  00000+0  21151-4 0  9999","line2":"2 53797  53.1598 107.1862 0001171  94.2397 265.8738 15.31701032223237","mean_motion":15.31701032,"eccentricity":0.0001171,"inclination_deg":53.1598,"raan_deg":107.1862,"arg_perigee_deg":94.2397,"mean_anomaly_deg":265.8738,"bstar":2.1151e-5,"rev_number":22323,"period_min":94.013124618695,"perigee_km":469.93491575317,"apogee_km":471.53892202498,"semimajor_km":6848.8739188891,"source":"CELESTRAK","updated_at":"2026-09-21T09:00:32.995258Z"}}}